Location: Newark
(22.3060°N, 114.2134°E)
Time: 13:48:23
(UTC+00:00)

SR - All Passes

Search period start: 04 August 2021 00:00
Search period end: 14 August 2021 00:00
Orbit: 577 x 877 km, 66.7° (Epoch: 03 August)

Date Brightness Start Highest point End Pass type
(mag) Time Alt. Az. Time Alt. Az. Time Alt. Az.
04 Aug - 06:50:28 10° N 06:54:20 28° ENE 06:58:01 10° ESE daylight
04 Aug - 08:33:43 10° WNW 08:35:57 14° WSW 08:38:08 10° SW daylight
04 Aug - 19:28:48 10° SE 19:32:20 16° ESE 19:35:50 10° ENE visible
04 Aug - 21:08:22 10° SW 21:14:02 49° WNW 21:19:35 10° N visible
05 Aug - 06:02:53 10° NE 06:04:16 11° ENE 06:05:38 10° ENE daylight
05 Aug - 07:42:19 10° NW 07:46:25 38° WSW 07:50:20 10° S daylight
05 Aug - 20:18:21 10° SSW 20:24:14 77° ESE 20:29:59 10° NNE visible
05 Aug - 22:05:06 10° WNW 22:06:39 11° WNW 22:08:11 10° NW daylight
06 Aug - 06:52:19 10° NNW 06:56:44 72° ENE 07:00:56 10° SSE daylight
06 Aug - 19:29:17 10° S 19:34:33 34° ESE 19:39:41 10° NE visible
06 Aug - 21:11:51 10° WSW 21:16:33 25° WNW 21:21:08 10° N visible
07 Aug - 06:03:09 10° N 06:06:52 26° ENE 06:10:25 10° ESE daylight
07 Aug - 07:45:59 10° WNW 07:48:31 15° WSW 07:51:01 10° SW daylight
07 Aug - 18:41:46 10° SE 18:44:57 15° ESE 18:48:05 10° ENE visible
07 Aug - 20:20:53 10° SW 20:26:37 53° WNW 20:32:11 10° N visible
08 Aug - 05:16:41 10° NE 05:16:47 10° ENE 05:16:52 10° ENE daylight
08 Aug - 06:54:49 10° NW 06:58:59 43° WSW 07:02:57 10° S daylight
08 Aug - 19:30:58 10° SSW 19:36:49 71° ESE 19:42:32 10° NNE visible
08 Aug - 21:17:02 10° W 21:19:11 12° WNW 21:21:19 10° NW visible
09 Aug - 06:04:54 10° NNW 06:09:17 64° ENE 06:13:27 10° SSE daylight
09 Aug - 18:42:02 10° SSE 18:47:09 31° ESE 18:52:09 10° NE visible
09 Aug - 20:24:16 10° WSW 20:29:06 26° WNW 20:33:49 10° N visible
10 Aug - 05:15:51 10° N 05:19:23 23° ENE 05:22:48 10° ESE daylight
10 Aug - 06:58:17 10° WNW 07:01:06 17° WSW 07:03:52 10° SSW daylight
10 Aug - 17:54:48 10° SE 17:57:33 14° ESE 18:00:17 10° ENE visible
10 Aug - 19:33:25 10° SW 19:39:13 57° WNW 19:44:48 10° NNE visible
11 Aug - 06:07:19 10° NW 06:11:32 48° WSW 06:15:35 10° S daylight
11 Aug - 18:43:36 10° S 18:49:25 65° ESE 18:55:04 10° NNE visible
11 Aug - 20:29:07 10° W 20:31:44 13° WNW 20:34:18 10° NNW visible
12 Aug - 05:17:29 10° NNW 05:21:49 57° ENE 05:25:57 10° SE daylight
12 Aug - 17:54:46 10° SSE 17:59:45 29° ESE 18:04:36 10° NE visible
12 Aug - 19:36:42 10° WSW 19:41:40 28° WNW 19:46:30 10° N visible
13 Aug - 04:28:33 10° NNE 04:31:54 21° ENE 04:35:08 10° ESE daylight
13 Aug - 06:10:38 10° WNW 06:13:40 19° WSW 06:16:39 10° SSW daylight
13 Aug - 17:07:56 10° SE 17:10:09 12° ESE 17:12:21 10° E visible
13 Aug - 18:45:57 10° SSW 18:51:46 62° WNW 18:57:24 10° NNE visible
